www.pogodaiklimat.ru

Погода и климат >> Архив погоды >> Австрия >> Бад-Миттерндорф


ПОГОДА в Бад-Миттерндорфе

  • Прогноз погоды в Бад-Миттерндорфе
  • Монитор погоды в Бад-Миттерндорфе

АРХИВ ПОГОДЫ в Бад-Миттерндорфе

Время (UTC), дата Ветер
(напр.,м/с)
 
Видим.   Явления Облачность Т
(С)
Тd
(С)
f
(%)
Тe
(С)
Тes
(С)
Комфортность P
(гПа)
Po
(гПа)
Тmin
(С)
Tmax
(С)
R
(мм)
R24
(мм)
S
(см)
22 10.06 ЮВ 3 н/о н/о +24.1 +13.6 52 +26 +26 жарко 1008.9 921.3
23 10.06 ЮВ 4 н/о н/о +24.2 +13.4 51 +26 +26 жарко 1008.4 920.9
00 11.06 ЮВ 3 н/о н/о +22.6 +13.9 58 +26 +26 жарко 1008.4 920.4
01 11.06 ЮВ 4 н/о н/о +21.7 +13.8 61 +25 +25 комфорт 1008.3 920.1
02 11.06 ЮВ 5 н/о н/о +20.8 +14.4 67 +24 +24 комфорт 1008.7 920.2
03 11.06 ЮВ 4 н/о н/о +20.9 +14.0 65 +24 +24 комфорт 1008.3 919.9
04 11.06 ЮВ 3 н/о н/о +20.8 +14.2 66 +24 +24 комфорт 1008.5 920.0
05 11.06 штиль 0 н/о н/о +20.6 +14.4 68 +23 +23 комфорт 1009.0 920.4
06 11.06 ЮВ 2 н/о н/о +22.8 +15.7 64 +27 +27 душно 1008.8 920.9 +20.2 +26.8
07 11.06 ЮВ 3 н/о н/о +23.0 +15.9 64 +27 +27 душно 1008.5 920.7
08 11.06 Ю 4 н/о н/о +24.5 +16.5 61 +28 +28 душно 1007.4 920.2
09 11.06 Ю 4 н/о н/о +26.5 +15.9 52 +30 +30 душно 1006.2 919.6
10 11.06 ЮВ 4 н/о н/о +27.3 +14.6 46 +30 +30 душно 1005.7 919.3
11 11.06 В 3 н/о н/о +28.5 +13.9 41 +30 +30 жарко 1004.6 918.6
12 11.06 В 5 н/о н/о +28.8 +13.0 38 +30 +30 жарко 1004.5 918.6
13 11.06 ЮВ 1 н/о н/о +27.7 +12.9 40 +29 +29 жарко 1005.5 919.2 0.0
14 11.06 З 2 н/о н/о +26.7 +12.7 42 +28 +28 жарко 1005.6 919.0 0.0
15 11.06 СВ 4 н/о н/о +28.1 +13.2 40 +30 +30 жарко 1004.9 918.7 0.0
16 11.06 В 5 н/о н/о +26.1 +13.9 47 +28 +28 жарко 1006.1 919.3
17 11.06 В 3 н/о н/о +25.7 +13.2 46 +28 +28 жарко 1007.4 920.4
18 11.06 ЮВ 5
{13}
н/о н/о +24.8 +11.0 42 +26 +26 жарко 1009.4 921.9 +22.2 +30.2 0.0
19 11.06 В 1
{14}
н/о ливневой дождь н/о +19.9 +12.6 63 +23 +23 комфорт 1010.8 921.8 0.4
20 11.06 ЮВ 7
{13}
н/о н/о +22.4 +11.5 50 +25 +25 комфорт 1011.5 923.1 0.0
21 11.06 ЮВ 2
{14}
н/о {ливн. осадки} н/о +21.3 +11.0 52 +23 +23 комфорт 1011.8 923.1 0.4
22 11.06 штиль 0 н/о н/о +18.8 +12.1 65 +19 +19 1011.5 922.1
23 11.06 штиль 0 н/о н/о +18.3 +11.8 66 +19 +19 1011.3 921.8
00 12.06 штиль 0
{14}
н/о {ливн. осадки} н/о +17.2 +11.5 69 +17 +17 1011.3 921.5 0.4
01 12.06 В 2 н/о н/о +18.1 +10.9 63 +19 +19 1010.4 920.9
02 12.06 С 1 н/о н/о +15.9 +10.9 72 +17 +17 1010.6 920.4
03 12.06 З 1 н/о н/о +15.0 +11.2 78 +16 +16 1010.7 920.3
04 12.06 З 1 н/о н/о +15.2 +11.4 78 +16 +16 1010.5 920.1
05 12.06 З 2 н/о н/о +17.7 +12.4 71 +18 +18 1009.2 919.7
06 12.06 ЮЗ 1
{14}
н/о н/о +22.0 +14.6 63 +25 +25 комфорт 1007.3 919.3 +14.6 +25.0 0.4
07 12.06 В 5 н/о н/о +24.1 +14.2 54 +27 +27 жарко 1006.2 918.9
08 12.06 В 4 н/о н/о +24.9 +14.6 53 +28 +28 жарко 1006.1 919.0
09 12.06 В 4 н/о н/о +25.4 +14.5 51 +28 +28 жарко 1005.7 918.8
10 12.06 В 5 н/о н/о +25.9 +14.6 50 +28 +28 жарко 1005.4 918.6
11 12.06 В 2 н/о н/о +26.4 +14.1 47 +29 +29 жарко 1005.4 918.8
12 12.06 В 3 н/о н/о +27.0 +14.0 45 +29 +29 жарко 1005.2 918.7
13 12.06 В 3 н/о н/о +25.7 +15.7 54 +29 +29 душно 1006.4 919.5 0.0
14 12.06 ЮВ 2 н/о н/о +26.7 +16.1 52 +30 +30 душно 1005.8 919.3
15 12.06 В 2 н/о н/о +26.5 +15.0 49 +29 +29 жарко 1006.2 919.6 0.0
16 12.06 СВ 2 н/о н/о +26.2 +14.6 49 +29 +29 жарко 1006.0 919.3
17 12.06 В 4 н/о н/о +25.8 +14.5 50 +28 +28 жарко 1006.0 919.2
18 12.06 ЮВ 2 н/о н/о +25.2 +14.0 50 +28 +28 жарко 1006.6 919.5 +20.1 +28.0 0.0
19 12.06 ЮВ 4 н/о н/о +24.9 +14.0 51 +27 +27 жарко 1007.0 919.8
20 12.06 СЗ 4 н/о н/о +19.9 +15.0 73 +22 +22 комфорт 1009.6 920.8
21 12.06 СЗ 3 н/о н/о +18.1 +15.4 84 +18 +18 1010.9 921.5
22 12.06 СЗ 1 н/о н/о +17.2 +15.2 88 +18 +18 1011.5 921.8
23 12.06 З 3 н/о н/о +16.1 +14.8 92 +16 +16 1012.2 922.1
00 13.06 С 1 н/о н/о +15.3 +14.3 94 +16 +16 1012.5 922.1
01 13.06 СВ 1 н/о н/о +15.1 +14.3 95 +16 +16 1012.8 922.3
02 13.06 СВ 1 н/о н/о +14.4 +13.9 97 +15 +15 1013.0 922.3
03 13.06 штиль 0 н/о н/о +13.3 +13.0 98 +13 +13 1013.6 922.4
04 13.06 З 1 н/о н/о +12.8 +12.5 98 +13 +13 1014.4 923.0
05 13.06 штиль 0 н/о н/о +14.0 +13.3 96 +14 +14 1014.4 923.4
06 13.06 штиль 0 н/о н/о +15.5 +14.0 91 +15 +15 1014.3 923.8 +12.7 +25.7
07 13.06 З 2 н/о н/о +16.7 +13.6 82 +17 +17 1014.0 923.8
08 13.06 З 1 н/о н/о +18.5 +14.5 78 +20 +20 1012.8 923.3
09 13.06 З 2 н/о н/о +20.6 +14.0 66 +24 +24 комфорт 1011.8 923.0
10 13.06 С 2 н/о н/о +22.7 +14.8 61 +26 +26 жарко 1010.2 922.1
11 13.06 Ю 1 н/о н/о +26.8 +13.5 44 +29 +29 жарко 1008.3 921.5
12 13.06 ЮВ 4 н/о н/о +28.4 +12.3 37 +30 +30 жарко 1007.4 921.1
13 13.06 В 1 н/о н/о +29.2 +12.6 36 +30 +30 жарко 1006.8 920.8
14 13.06 Ю 4 н/о н/о +30.2 +9.7 28 +30 +30 жарко 1006.5 920.7
15 13.06 ЮВ 4 н/о н/о +29.4 +9.0 28 +29 +29 жарко 1006.8 920.7
16 13.06 Ю 2 н/о н/о +28.8 +9.0 29 +29 +29 жарко 1007.2 920.9
17 13.06 З 4 н/о н/о +26.3 +14.8 49 +29 +29 жарко 1008.3 921.4
18 13.06 З 4 н/о н/о +24.6 +15.8 58 +28 +28 душно 1009.4 922.0 +15.2 +30.6
19 13.06 З 1 н/о н/о +22.3 +16.1 68 +26 +26 жарко 1011.3 923.1
20 13.06 СЗ 1 н/о н/о +20.4 +16.1 76 +24 +24 комфорт 1013.3 924.4
21 13.06 СЗ 2 н/о н/о +20.0 +16.1 78 +23 +23 комфорт 1014.6 925.4
22 13.06 С 1 н/о н/о +19.3 +15.8 80 +22 +22 комфорт 1015.8 926.3
23 13.06 СЗ 1 н/о н/о +19.1 +15.4 79 +22 +22 комфорт 1016.3 926.7
00 14.06 штиль 0 н/о н/о +17.2 +14.9 86 +17 +17 1017.4 927.1
01 14.06 штиль 0 н/о н/о +15.7 +14.4 92 +15 +15 1018.1 927.3
02 14.06 штиль 0 н/о н/о +14.4 +13.6 95 +14 +14 1018.9 927.6
03 14.06 штиль 0 н/о н/о +13.5 +13.2 98 +13 +13 1019.5 927.9
04 14.06 штиль 0 н/о н/о +12.7 +12.4 98 +12 +12 1020.5 928.5
05 14.06 С 1 н/о н/о +14.3 +13.1 92 +15 +15 1020.0 928.6
06 14.06 СЗ 1 н/о н/о +16.5 +14.3 87 +17 +17 1019.6 928.9 +12.5 +24.8
07 14.06 Ю 1 н/о н/о +21.0 +14.4 66 +25 +25 комфорт 1017.9 928.7
08 14.06 ЮВ 3 н/о н/о +23.5 +15.3 60 +26 +26 жарко 1016.4 928.0
09 14.06 ЮВ 4 н/о н/о +24.2 +14.3 54 +27 +27 жарко 1016.0 927.8
10 14.06 ЮВ 4 н/о н/о +26.7 +13.4 44 +29 +29 жарко 1014.9 927.5
11 14.06 ЮВ 3 н/о н/о +29.0 +14.0 40 +31 +31 жарко 1013.5 926.9
12 14.06 В 4 н/о н/о +30.5 +12.4 33 +31 +31 жарко 1012.5 926.3
13 14.06 В 4 н/о н/о +31.5 +12.3 31 +32 +32 жарко 1011.5 925.7
14 14.06 ЮВ 2 н/о н/о +33.1 +12.7 29 +34 +34 очень
жарко
1010.5 925.2
15 14.06 В 3 н/о н/о +31.6 +11.9 30 +32 +32 жарко 1010.3 924.6
16 14.06 ЮВ 5 н/о н/о +32.1 +12.3 30 +33 +33 жарко 1009.8 924.3
17 14.06 ЮВ 5 н/о н/о +31.5 +10.2 27 +31 +31 жарко 1010.2 924.4
18 14.06 ЮВ 2 н/о н/о +30.5 +11.0 30 +31 +31 жарко 1010.3 924.3 +16.5 +33.5
19 14.06 ЮВ 2 н/о н/о +27.1 +10.3 35 +28 +28 жарко 1011.6 924.5
20 14.06 ЮВ 1 н/о н/о +25.8 +10.4 38 +27 +27 жарко 1012.3 924.8
21 14.06 ЮВ 3 н/о н/о +25.3 +9.6 37 +26 +26 жарко 1012.9 925.2
22 14.06 В 2 н/о н/о +25.5 +10.1 38 +26 +26 жарко 1013.2 925.5
23 14.06 В 2 н/о н/о +22.6 +10.4 46 +24 +24 комфорт 1014.0 925.4
00 15.06 В 2 н/о н/о +23.1 +11.5 48 +25 +25 комфорт 1013.2 924.9
01 15.06 В 2 н/о н/о +21.9 +11.3 51 +24 +24 комфорт 1013.4 924.7
02 15.06 В 1 н/о н/о +20.1 +12.1 60 +23 +23 комфорт 1013.5 924.3
03 15.06 Ю 1 н/о н/о +18.6 +12.3 67 +20 +20 1013.9 924.3
04 15.06 СЗ 1 н/о н/о +18.4 +12.8 70 +20 +20 1013.9 924.2
05 15.06 С 1 н/о н/о +18.2 +13.2 73 +20 +20 1013.7 924.0
06 15.06 штиль 0 н/о н/о +18.6 +14.0 75 +19 +19 1013.9 924.3 +17.7 +30.6
07 15.06 СВ 1 н/о н/о +20.5 +13.9 66 +24 +24 комфорт 1013.2 924.2
08 15.06 Ю 1 н/о н/о +22.3 +16.1 68 +26 +26 жарко 1012.5 924.2
09 15.06 З 1 н/о н/о +22.5 +16.6 69 +27 +27 душно 1012.4 924.2
10 15.06 В 1 н/о н/о +24.6 +16.9 62 +28 +28 душно 1011.3 923.8
11 15.06 В 3 н/о н/о +26.9 +15.6 50 +30 +30 душно 1010.5 923.6
12 15.06 В 4 н/о н/о +28.2 +15.2 45 +31 +31 душно 1009.6 923.1
13 15.06 В 3 н/о н/о +29.4 +15.2 42 +32 +32 душно 1008.4 922.4
14 15.06 В 4 н/о н/о +28.8 +15.0 43 +31 +31 жарко 1008.2 922.0
15 15.06 З 6 н/о н/о +24.3 +16.1 60 +28 +28 душно 1010.5 922.9
16 15.06 З 4 н/о н/о +24.1 +15.9 60 +27 +27 жарко 1010.6 922.9 0.0
17 15.06 З 6 н/о осадки н/о +21.8 +16.8 73 +26 +26 душно 1011.9 923.5 0.6
18 15.06 СЗ 3 н/о в посл. час осадки н/о +18.8 +16.6 87 +20 +20 1013.4 924.0 +18.1 +30.3 6
19 15.06 штиль 0 н/о н/о +16.5 +16.2 98 +16 +16 1014.7 924.5
20 15.06 С 1 н/о н/о +16.6 +16.3 98 +17 +17 1015.3 925.1
21 15.06 СЗ 1 н/о н/о +15.6 +15.3 98 +16 +16 1015.1 924.6
22 15.06 С 1 н/о н/о +15.1 +14.8 98 +16 +16 1015.1 924.4
23 15.06 штиль 0 н/о н/о +14.8 +14.4 97 +14 +14 1015.3 924.5
00 16.06 СЗ 1 н/о н/о +14.1 +13.7 97 +14 +14 1015.8 924.7
01 16.06 штиль 0 н/о н/о +13.3 +13.0 98 +13 +13 1016.6 925.2
02 16.06 штиль 0 н/о н/о +13.9 +13.6 98 +13 +13 1016.8 925.6
03 16.06 З 2 н/о н/о +15.5 +13.1 86 +15 +15 1017.2 926.4
04 16.06 З 2 н/о н/о +15.5 +12.6 83 +15 +15 1017.9 927.0
05 16.06 СЗ 1 н/о н/о +15.1 +13.1 88 +16 +16 1018.5 927.4
06 16.06 З 3 н/о н/о +15.5 +12.8 84 +15 +15 1018.9 927.9 +13.0 +19.2
07 16.06 З 3 н/о н/о +15.4 +12.5 83 +15 +15 1019.3 928.2
08 16.06 З 3 н/о н/о +15.8 +12.1 79 +15 +15 1019.5 928.5
09 16.06 З 3 н/о н/о +16.8 +12.3 75 +17 +17 1019.6 928.9
10 16.06 З 4 н/о н/о +17.3 +12.4 73 +17 +17 1019.6 929.1
11 16.06 З 4 н/о н/о +17.5 +11.9 70 +17 +17 1019.7 929.2
12 16.06 З 5 н/о н/о +17.6 +11.8 69 +17 +17 1019.4 929.0
13 16.06 З 3 н/о н/о +18.0 +11.5 66 +18 +18 1019.2 928.9
14 16.06 З 4 н/о н/о +17.6 +11.4 67 +17 +17 1019.5 929.0
15 16.06 З 3 н/о н/о +16.9 +11.6 71 +17 +17 1020.0 929.3
16 16.06 З 3 н/о н/о +16.5 +11.6 73 +16 +16 1020.4 929.5 0.0
17 16.06 З 3 н/о н/о +16.0 +11.6 75 +16 +16 1021.3 930.2 0.0
18 16.06 СЗ 1 н/о н/о +15.7 +11.9 78 +16 +16 1021.5 930.3 +15.4 +18.3 0.0
19 16.06 З 1 н/о н/о +15.5 +12.0 80 +16 +16 1021.5 930.3
20 16.06 СЗ 1 н/о н/о +15.1 +11.8 81 +16 +16 1022.3 930.9
21 16.06 штиль 0 н/о н/о +14.9 +12.0 83 +15 +15 1022.3 930.8
22 16.06 С 1 н/о н/о +14.0 +12.2 89 +14 +14 1022.8 931.0
23 16.06 С 1 н/о н/о +12.8 +12.0 95 +13 +13 1023.0 930.8
00 17.06 штиль 0 н/о н/о +11.6 +11.0 96 +11 +11 1023.1 930.5
01 17.06 СЗ 1 н/о н/о +10.9 +10.6 98 +10 +10 1023.2 930.4
02 17.06 штиль 0 н/о н/о +10.9 +10.6 98 +10 +10 1023.0 930.2
03 17.06 штиль 0 н/о н/о +10.8 +10.5 98 +10 +10 1023.2 930.3
04 17.06 Ю 1 н/о н/о +10.8 +10.5 98 +10 +10 1023.4 930.5
05 17.06 СЗ 1 н/о н/о +12.7 +11.4 92 +13 +13 1022.3 930.1
06 17.06 Ю 1 н/о н/о +16.8 +12.9 78 +18 +18 1020.6 929.9 +10.4 +16.8
07 17.06 штиль 0 н/о н/о +18.3 +12.9 71 +19 +19 1019.7 929.5
08 17.06 ЮВ 2 н/о н/о +19.4 +11.7 61 +21 +21 комфорт 1018.9 929.0
09 17.06 В 3 н/о н/о +20.8 +11.4 55 +23 +23 комфорт 1017.9 928.5
10 17.06 В 3 н/о н/о +21.7 +11.4 52 +24 +24 комфорт 1017.1 928.0
11 17.06 В 3 н/о н/о +22.5 +11.8 51 +25 +25 комфорт 1016.4 927.6
12 17.06 В 3 н/о н/о +23.0 +12.3 51 +26 +26 жарко 1015.6 927.1
13 17.06 В 2 н/о н/о +23.5 +12.5 50 +25 +25 комфорт 1015.3 926.9
14 17.06 В 3 н/о н/о +23.8 +12.7 50 +26 +26 жарко 1014.7 926.5
15 17.06 В 3 н/о н/о +23.9 +12.8 50 +26 +26 жарко 1014.1 926.0
17 17.06 В 2 н/о н/о +19.6 +13.0 66 +22 +22 комфорт 1016.2 926.7
18 17.06 Ю 1 н/о н/о +18.1 +15.6 85 +19 +19 1016.6 926.7 +15.8 +24.4
19 17.06 ЮЗ 1 н/о н/о +17.0 +15.9 93 +18 +18 1017.2 926.9
20 17.06 СЗ 1 н/о н/о +15.8 +15.4 97 +16 +16 1018.0 927.3
21 17.06 СЗ 1 н/о н/о +14.6 +13.8 95 +15 +15 1018.7 927.5
22 17.06 СЗ 1 н/о н/о +14.2 +13.7 97 +14 +14 1018.9 927.6

 

Местоположение метеостанции Бад-Миттерндорф (Австрия): широта 47.55 долгота 13.93 высота над уровнем моря 803 м.

В архиве по умолчанию представлена погода в Бад-Миттерндорфе за последнюю неделю. Архивные данные за месяц целиком и за предыдущие месяцы, начиная с января 2011 года, Вы можете получить, выбрав интересующий диапазон дат из раскрывающегося списка и нажав кнопку "Ввод!".


*Определитесь, кто Вы:
робот инопланетянин человек

Внимание! Время в таблицах - всемирное. Для получения местного времени необходимо прибавить поправку, которая равна 1 ч.

Смотрите также архив погоды в соседних городах и на ближайших метеорологических станциях:

Погода в Грёбминге (Австрия) (11 км)
Погода в Бад-Аусзе (Австрия) (14 км)
Погода в Айген-им-Энсталь (Австрия) (15 км)
Погода в Бад-Гойзерне (Австрия) (25 км)
Погода в Рамзау (Австрия) (26 км)
Погода в Фойеркогеле (Австрия) (34 км)
Погода в Виндишгарстене (Австрия) (36 км)
Погода в Гмундене (Австрия) (40 км)
Погода в Радштадте (Австрия) (41 км)
Погода в Санкт-Вольфганге (Австрия) (41 км)

Пояснения к столбцам:

Ветер - указаны скорость ветра в м/с - средняя за 10 мин, порывы в срок и между сроками (в фигурных скобках) и направление, откуда дует ветер: С - северный, СВ - северо-восточный, В - восточный, ЮВ - юго-восточный, Ю - южный, ЮЗ - юго-западный, З - западный, СЗ - северо-западный.
Видимость - горизонтальная дальность видимости в метрах или километрах. При видимости от 1 до 10 км при отсутствии осадков обычно наблюдается дымка, при ухудшении видимости до 1 км и менее - туман. В сухую погоду видимость может ухудшаться дымом, пылью или мглою.
Явления - указаны атмосферные явления, наблюдавшиеся в срок или в последний час перед сроком; фигурными скобками обозначены явления, наблюдавшиеся между сроками (за 1-3 часа до срока); квадратными скобками обозначены град или гололедные отложения с указанием их диаметра в мм.
Облачность - указаны через наклонную черту общая и нижняя облачность в баллах и высота нижней границы облаков в метрах; квадратными скобками обозначены формы облаков: Ci - перистые, Cs - перисто-слоистые, Cc - перисто-кучевые, Ac - высококучевые, As - высокослоистые, Sc - слоисто-кучевые, Ns - слоисто-дождевые, Cu - кучевые, Cb - кучево-дождевые. Подробнее классификацию облаков см. в Атласе облаков (PDF).
T - Температура воздуха - температура, измеренная на высоте 2 м над землей.
Td - Температура точки росы - температура, при понижении до которой содержащийся в воздухе водяной пар достигнет насыщения.
f - Относительная влажность воздуха - влажноcть воздуха, измеренная на высоте 2 м над землей.
Te - Эффективная температура - температура, которую ощущает одетый по сезону человек в тени. Характеристика душности погоды. При расчете учитывается влияние влажности воздуха и скорости ветра на теплоощущения человека.
Tes - Эффективная температура на солнце - температура, которую ощущает человек, с поправкой на солнечный нагрев. Характеристика знойности погоды. Зависит от высоты солнца над горизонтом, облачности и скорости ветра. Ночью, в пасмурную погоду, а также при ветре 12 м/с и более поправка равна нулю.
P - Атмосферное давление - приведенное к уровню моря атмосферное давление.
Po - Атмосферное давление - измеренное на уровне метеостанции атмосферное давление.
Tmin - Минимальная температура - минимум температуры воздуха на высоте 2 м над землей.
Tmax - Максимальная температура - максимум температуры воздуха на высоте 2 м над землей.
R - Количество осадков - Количество выпавших осадков за период времени, мм. При наведении курсора мыши на число - период времени, за который выпало указанное количество осадков.
R24 - Количество осадков - Количество выпавших осадков за 24 часа, мм.
S - Снежный покров - Высота снежного покрова, см. При наведении курсора мыши на число - состояние снежного покрова и степень покрытия местности в баллах.